[[{"header":{"parameterUnit":"m.s-1","parameterCategory":1,"la1":30.2991,"la2":30.254,"lo1":-89.0895,"lo2":-89.0444,"dy":0.0017,"dx":0.0017,"nx":28,"ny":28,"refTime":"2025-04-24T21:00:00:Z","depth":0,"parameterNumber":2,"parameterNumberName":"U-component_of_WINDS"},"data":[0,0,0,0,0,0,0,0,0,0,0,0,0,0,0,0,0,0,0,0,0,0,0,0,0,0,0,0,0,0,0,0,0,0,0,0,0,0,0,0,0,0,0,0,0,0,0,0,0,0,0,0,0,0,0,0,0,0,-2.1497,-2.1497,0,-2.1506,-2.1506,-2.1506,-2.1464,-2.1463,-2.1462,-2.146,-2.1471,-2.1472,-2.1473,0,0,0,0,0,0,0,0,0,0,0,0,0,-2.1445,-2.1446,-2.1497,-2.1497,-2.1497,-2.1506,-2.1506,-2.1506,-2.1464,-2.1463,-2.1461,-2.146,-2.147,-2.1472,-2.1473,0,0,0,0,0,0,0,0,0,0,0,0,0,-2.1462,-2.1446,-2.1497,-2.1477,-2.1475,-2.1506,-2.1506,-2.1506,-2.1465,-2.1463,-2.1461,-2.1459,-2.147,-2.1472,-2.1474,-2.1524,0,0,-2.148,-2.1481,0,0,0,0,0,0,0,0,-2.1461,-2.1464,-2.148,-2.1479,-2.1477,-2.1482,-2.1492,-2.1512,-2.1465,-2.1469,-2.146,-2.1458,-2.1476,-2.1477,-2.1483,-2.1524,-2.1525,-2.148,-2.1482,-2.1483,-2.1483,0,0,0,0,0,0,0,-2.146,-2.1464,-2.15,-2.148,-2.1478,-2.1469,-2.1469,-2.1495,-2.1483,-2.1468,-2.1465,-2.1467,-2.1475,-2.1481,-2.1483,-2.1525,-2.148,-2.1482,-2.1484,-2.1484,-2.1609,-2.1611,0,0,0,0,0,0,-2.1461,-2.1463,-2.15,-2.1501,-2.1464,-2.1471,-2.1472,-2.1482,-2.1482,-2.148,-2.1468,-2.1465,-2.1479,-2.1481,-2.1483,-2.1542,-2.1483,-2.1485,-2.1486,-2.1607,-2.1609,-2.1612,0,0,0,0,0,0,-2.146,-2.1465,-2.15,-2.1481,-2.1485,-2.1474,-2.1486,-2.1483,-2.149,-2.1482,-2.148,-2.1477,-2.1477,-2.148,-2.1514,-2.1542,-2.1486,-2.1487,-2.1605,-2.1608,-2.1611,-2.1659,0,0,0,0,0,0,-2.1459,-2.1465,-2.1483,-2.1482,-2.1486,-2.153,-2.1488,-2.1485,-2.1493,-2.1489,-2.149,-2.1488,-2.1476,-2.1511,-2.1516,-2.1543,-2.1489,-2.1602,-2.1606,-2.161,-2.1655,-2.1664,-2.1671,0,0,0,0,0,-2.1457,-2.1496,-2.1484,-2.1489,-2.1508,-2.1531,-2.1534,-2.1519,-2.1496,-2.1514,-2.151,-2.1488,-2.1539,-2.1515,-2.1521,-2.1549,-2.16,-2.1605,-2.1609,-2.1652,-2.1662,-2.1671,0,0,0,0,0,0,-2.15,-2.1496,-2.1482,-2.1522,-2.1527,-2.1524,-2.1547,-2.153,-2.1542,-2.1537,-2.1519,-2.1519,-2.1556,-2.1556,-2.153,-2.1598,-2.1566,-2.1571,-2.1596,-2.1606,-2.1613,-2.1611,-2.1491,0,0,0,0,0,-2.1515,-2.1534,-2.1529,-2.1564,-2.1568,-2.1557,-2.1567,-2.1555,-2.156,-2.1562,-2.156,-2.1566,-2.1584,-2.1595,-2.1611,-2.1656,-2.1656,-2.1679,-2.1687,-2.1693,-2.1697,-2.1722,-2.1732,-2.1627,-2.1627,-2.1627,0,0,-2.1544,-2.1544,-2.1557,-2.1573,-2.1576,-2.1596,-2.1559,-2.1582,-2.1597,-2.1566,-2.1597,-2.1597,-2.1603,-2.1643,-2.166,-2.1644,-2.1727,-2.1699,-2.1704,-2.1705,-2.1728,-2.1738,-2.1746,-2.163,-2.1629,-2.1629,0,0,-2.1607,-2.1609,-2.1639,-2.1643,-2.1649,-2.1642,-2.165,-2.165,-2.1648,-2.168,-2.1657,-2.1675,-2.1705,-2.171,-2.1717,-2.1786,-2.1767,-2.1792,-2.1832,-2.1856,-2.1865,-2.1872,-2.1895,-2.1904,-2.1797,-2.1798,-2.1798,0,-2.1642,-2.1672,-2.1656,-2.1681,-2.1689,-2.1663,-2.1694,-2.1699,-2.1709,-2.1716,-2.1698,-2.1736,-2.1738,-2.1779,-2.1796,-2.1803,-2.1811,-2.179,-2.1865,-2.1872,-2.1878,-2.1901,-2.191,-2.18,-2.18,-2.18,-2.18,0,-2.1715,-2.1736,-2.176,-2.177,-2.1782,-2.1809,-2.1799,-2.1813,-2.1801,-2.1797,-2.183,-2.1833,-2.1848,-2.1858,-2.1847,-2.1898,-2.1888,-2.1868,-2.1834,-2.1891,-2.1912,-2.1921,-2.1805,-2.1804,-2.1803,-2.1802,0,0,-2.1801,-2.1806,-2.1814,-2.1819,-2.1825,-2.1841,-2.1869,-2.1885,-2.1896,-2.1906,-2.1928,-2.1956,-2.1938,-2.1946,-2.1936,-2.1957,-2.2011,-2.1935,-2.1934,-2.1947,-2.2068,-2.2081,-2.2091,-2.2,-2.2002,-2.2003,-2.2067,0,-2.1862,-2.1908,-2.1896,-2.1942,-2.1962,-2.1939,-2.1963,-2.197,-2.1968,-2.1985,-2.1983,-2.2002,-2.1977,-2.1982,-2.2003,-2.2,-2.2035,-2.1996,-2.202,-2.2021,-2.2016,-2.2102,-2.2115,-2.2175,-2.2075,-2.2076,-2.2077,0,-2.1938,-2.195,-2.1998,-2.2002,-2.201,-2.2031,-2.2045,-2.2062,-2.207,-2.2067,-2.2078,-2.2064,-2.2092,-2.2061,-2.21,-2.2074,-2.2084,-2.2085,-2.2087,-2.2086,-2.205,-2.2102,-2.2194,-2.2202,-2.209,-2.2089,-2.2088,0,-2.1994,-2.2024,-2.2056,-2.2061,-2.2067,-2.2083,-2.2086,-2.2092,-2.2103,-2.2117,-2.2123,-2.214,-2.2149,-2.2163,-2.2154,-2.2132,-2.2194,-2.2162,-2.2192,-2.2192,-2.2203,-2.2202,-2.2296,-2.2214,-2.2214,-2.2214,-2.2214,0,-2.2062,-2.2091,-2.2081,-2.2101,-2.2134,-2.2123,-2.2156,-2.2157,-2.2163,-2.2183,-2.2166,-2.2186,-2.2174,-2.2193,-2.2187,-2.222,-2.2225,-2.2223,-2.222,-2.2223,-2.2223,-2.2227,-2.2221,-2.2216,-2.2216,-2.2215,-2.2215,0,-2.2129,-2.2124,-2.2157,-2.2161,-2.2163,-2.2187,-2.219,-2.2209,-2.2207,-2.2233,-2.2238,-2.2235,-2.2256,-2.225,-2.2274,-2.227,-2.2311,-2.2304,-2.2307,-2.2305,-2.2334,-2.2331,-2.2432,-2.2445,-2.2356,-2.2357,-2.2358,0,-2.2171,-2.2193,-2.22,-2.2212,-2.2216,-2.2236,-2.2248,-2.2238,-2.2251,-2.2263,-2.2281,-2.2301,-2.2316,-2.2352,-2.2352,-2.237,-2.2363,-2.2397,-2.2365,-2.2367,-2.2361,-2.2359,-2.2361,-2.2402,-2.2403,-2.2404,-2.2405,0,-2.2245,-2.2242,-2.2258,-2.2275,-2.2289,-2.2302,-2.2313,-2.2324,-2.2316,-2.2331,-2.2353,-2.2365,-2.239,-2.241,-2.2427,-2.2431,-2.2417,-2.2416,-2.2423,-2.2424,-2.2425,-2.2423,-2.2322,-2.2412,-2.2412,-2.2411,-2.2411,-2.241,-2.23,-2.2319,-2.2326,-2.2346,-2.2354,-2.2365,-2.2383,-2.2384,-2.2402,-2.2421,-2.2415,-2.244,-2.245,-2.2472,-2.2479,-2.2498,-2.2485,-2.2496,-2.2499,-2.2501,-2.2504,-2.2424,-2.2502,-2.2502,-2.2502,-2.2501,-2.2501,0,-2.2372,-2.2376,-2.2395,-2.2411,-2.2427,-2.2414,-2.2426,-2.244,-2.2462,-2.2472,-2.2488,-2.2514,-2.2535,-2.2538,-2.2557,-2.2572,-2.2566,-2.2578,-2.2575,-2.2576,-2.2515,-2.2506,-2.2582,-2.2582,-2.2582,-2.2582,-2.2582,-2.2582,-2.2411,-2.2442,-2.2441,-2.2477,-2.2481,-2.2505,-2.2514,-2.2524,-2.2533,-2.2562,-2.2579,-2.2581,-2.2589,-2.2609,-2.2628,-2.2628,-2.2635,-2.2649,-2.2646,-2.2589,-2.258,-2.2573,-2.2564,-2.2651,-2.2651,-2.2705,-2.2706,-2.2706]},{"header":{"parameterUnit":"m.s-1","parameterCategory":1,"la1":30.2991,"la2":30.254,"lo1":-89.0895,"lo2":-89.0444,"dy":0.0017,"dx":0.0017,"nx":28,"ny":28,"refTime":"2025-04-24T21:00:00:Z","depth":0,"parameterNumber":3,"parameterNumberName":"V-component_of_WINDS"},"data":[0,0,0,0,0,0,0,0,0,0,0,0,0,0,0,0,0,0,0,0,0,0,0,0,0,0,0,0,0,0,0,0,0,0,0,0,0,0,0,0,0,0,0,0,0,0,0,0,0,0,0,0,0,0,0,0,0,0,3.0381,3.0381,0,3.0386,3.0386,3.0386,3.0441,3.0443,3.0444,3.0445,3.0446,3.0445,3.0443,0,0,0,0,0,0,0,0,0,0,0,0,0,3.0416,3.0415,3.0381,3.0381,3.0381,3.0386,3.0386,3.0386,3.0441,3.0443,3.0444,3.0446,3.0446,3.0445,3.0443,0,0,0,0,0,0,0,0,0,0,0,0,0,3.0409,3.0414,3.0381,3.0409,3.0412,3.0386,3.0386,3.0386,3.0441,3.0443,3.0445,3.0447,3.0447,3.0445,3.0443,3.0389,0,0,3.0437,3.0436,0,0,0,0,0,0,0,0,3.0409,3.0407,3.0405,3.0407,3.041,3.0415,3.0399,3.0387,3.044,3.043,3.0445,3.0448,3.0434,3.0433,3.0429,3.039,3.039,3.0437,3.0436,3.0435,3.0434,0,0,0,0,0,0,0,3.0409,3.0407,3.0383,3.0405,3.0408,3.0421,3.0422,3.0397,3.042,3.0431,3.0435,3.0435,3.0435,3.0431,3.043,3.039,3.0437,3.0435,3.0434,3.0433,3.0308,3.0305,0,0,0,0,0,0,3.0406,3.0407,3.0383,3.0383,3.0415,3.0418,3.042,3.0411,3.042,3.0424,3.0433,3.0437,3.0433,3.0432,3.043,3.0369,3.0435,3.0433,3.0432,3.031,3.0307,3.0305,0,0,0,0,0,0,3.0407,3.0404,3.0383,3.0396,3.0395,3.0416,3.0406,3.041,3.0406,3.0422,3.0426,3.0424,3.0435,3.0433,3.04,3.0369,3.0432,3.0431,3.0312,3.0309,3.0306,3.0245,0,0,0,0,0,0,3.0408,3.0404,3.0384,3.0396,3.0394,3.0353,3.0404,3.0409,3.0403,3.0409,3.0415,3.0418,3.0436,3.0402,3.0398,3.0368,3.0429,3.0315,3.0311,3.0307,3.025,3.024,3.0232,0,0,0,0,0,3.0409,3.0365,3.0383,3.0379,3.037,3.0351,3.035,3.0373,3.0401,3.0381,3.0391,3.0418,3.0374,3.0399,3.0394,3.0363,3.0317,3.0312,3.0307,3.0254,3.0242,3.0232,0,0,0,0,0,0,3.0347,3.0367,3.0387,3.0346,3.0347,3.0361,3.0336,3.036,3.0352,3.0357,3.0385,3.0386,3.0349,3.0353,3.038,3.0312,3.035,3.0344,3.0311,3.03,3.0291,3.029,3.0428,0,0,0,0,0,3.0329,3.0314,3.0332,3.0294,3.0294,3.0315,3.0307,3.0326,3.0327,3.0327,3.0335,3.0334,3.032,3.031,3.0298,3.0251,3.0253,3.0227,3.0218,3.0211,3.0205,3.0181,3.017,3.0288,3.0289,3.0289,0,0,3.0291,3.03,3.0288,3.0282,3.0285,3.0267,3.0314,3.0293,3.0281,3.0323,3.0294,3.0299,3.03,3.026,3.0243,3.0262,3.0173,3.0205,3.0198,3.0197,3.0175,3.0163,3.0153,3.0285,3.0286,3.0286,0,0,3.0213,3.0219,3.0189,3.0191,3.0196,3.021,3.0203,3.0214,3.022,3.0191,3.0223,3.0208,3.0183,3.0183,3.0179,3.0103,3.0128,3.0099,3.0051,3.0027,3.0018,3.001,2.9983,2.9973,3.0093,3.0093,3.0093,0,3.0165,3.0141,3.0169,3.0147,3.0143,3.0184,3.0153,3.0154,3.0153,3.0149,3.0171,3.0142,3.0146,3.0107,3.0088,3.0084,3.0076,3.0098,3.0017,3.0009,3.0002,2.9977,2.9966,3.0089,3.009,3.009,3.009,0,3.0082,3.0065,3.004,3.0041,3.0034,3.0007,3.0031,3.0021,3.004,3.0052,3.0023,3.0029,3.0019,3.0011,3.0029,2.9975,2.9987,3.0012,3.0051,2.9987,2.9963,2.9954,3.0084,3.0085,3.0086,3.0087,0,0,2.9964,2.9983,2.9973,2.9974,2.9983,2.997,2.9945,2.9938,2.9929,2.9927,2.9907,2.9887,2.9911,2.9907,2.9925,2.9905,2.9845,2.9933,2.9934,2.9917,2.9786,2.9767,2.9755,2.9862,2.986,2.9858,2.9786,0,2.9889,2.985,2.9875,2.9831,2.9816,2.9855,2.9834,2.9836,2.9847,2.9835,2.9847,2.9832,2.9866,2.9864,2.9845,2.9856,2.9819,2.9862,2.9842,2.9841,2.984,2.9743,2.9722,2.9653,2.9777,2.9776,2.9775,0,2.9796,2.9793,2.9748,2.9762,2.9756,2.9737,2.9733,2.9721,2.9725,2.9734,2.9731,2.9755,2.9731,2.977,2.9738,2.9766,2.976,2.9764,2.9762,2.9761,2.9803,2.9738,2.9632,2.9621,2.976,2.9762,2.9763,0,2.9715,2.9699,2.9671,2.9671,2.9686,2.9671,2.9676,2.9683,2.9677,2.9673,2.967,2.9662,2.9658,2.9652,2.9673,2.9699,2.9638,2.9678,2.9644,2.9644,2.9629,2.9629,2.9519,2.9625,2.9625,2.9625,2.9626,0,2.9628,2.9599,2.9635,2.9617,2.9586,2.9616,2.9583,2.9592,2.9598,2.9582,2.9615,2.9599,2.9629,2.9616,2.9632,2.9603,2.96,2.9607,2.9612,2.9604,2.9603,2.96,2.9605,2.9623,2.9623,2.9624,2.9624,0,2.9532,2.9555,2.9526,2.9543,2.9547,2.9523,2.9537,2.9521,2.9536,2.9516,2.9512,2.9534,2.9521,2.9542,2.953,2.9541,2.9501,2.9513,2.95,2.9503,2.9469,2.9472,2.9352,2.9338,2.9453,2.9452,2.9451,0,2.9475,2.9454,2.947,2.9463,2.9467,2.9454,2.9449,2.9478,2.9471,2.9475,2.9459,2.9449,2.9442,2.9419,2.9433,2.9424,2.9436,2.9395,2.9435,2.9428,2.9436,2.9437,2.9435,2.9386,2.9385,2.9384,2.9383,0,2.9372,2.9385,2.9378,2.9374,2.9368,2.9367,2.9367,2.9359,2.9389,2.938,2.9368,2.9363,2.9353,2.9342,2.9338,2.9342,2.9367,2.9371,2.9363,2.9354,2.9348,2.9351,2.9478,2.9373,2.9374,2.9375,2.9375,2.9376,2.9294,2.9278,2.9287,2.9278,2.9282,2.9282,2.9268,2.9282,2.9273,2.9268,2.9285,2.9269,2.9274,2.9271,2.9273,2.926,2.9278,2.9266,2.9263,2.926,2.9254,2.935,2.9259,2.926,2.926,2.926,2.926,0,2.9193,2.9201,2.9193,2.9194,2.9187,2.9213,2.9216,2.9208,2.9194,2.9197,2.9191,2.9177,2.9168,2.9182,2.9175,2.9162,2.9173,2.9159,2.916,2.9161,2.9238,2.9246,2.915,2.915,2.915,2.915,2.915,2.915,2.914,2.9114,2.9128,2.9104,2.9112,2.9098,2.9098,2.9098,2.9101,2.9085,2.9078,2.9088,2.9096,2.909,2.9082,2.9086,2.9082,2.9064,2.9072,2.9144,2.9155,2.9165,2.9173,2.9062,2.9062,2.8995,2.8994,2.8994]}]]